{"data":{"norad_id":68894,"intl_designator":"2026-096B","name":"FALCON HEAVY R/B","alt_names":[],"object_type":"ROCKET_BODY","status":"UNKNOWN","operator":null,"country":"US","launch_date":"2026-04-29","launch_site_code":"AFETR","launch_vehicle":null,"mission":null,"orbit_class":"UNKNOWN","rcs_meters":null,"size_class":null,"mass_kg":null,"dimensions":null,"purposes":[],"wikipedia_slug":null,"has_3d_model":false,"image_url":null,"decayed_at":null,"tle_current":{"epoch":"2026-05-24T20:42:20.310048Z","epoch_age_seconds":86669,"freshness":"FRESH","line1":"1 68894U 26096B   26144.86273507 -.00000116  00000+0  00000+0 0  9990","line2":"2 68894   2.6707 279.9895 1483210 180.9227 178.8827  1.35919139   345","mean_motion":1.35919139,"eccentricity":0.148321,"inclination_deg":2.6707,"raan_deg":279.9895,"arg_perigee_deg":180.9227,"mean_anomaly_deg":178.8827,"bstar":0,"rev_number":34,"period_min":1059.4534445955,"perigee_km":22941.417723323,"apogee_km":33153.494517791,"semimajor_km":34425.593120557,"source":"CELESTRAK","updated_at":"2026-05-25T13:38:08.652105Z"}}}